Find Starlink 35021

NORAD ID: 65282 Int'l Des: 2025-184 Owner: SPXS Country: US Constellation: starlink operational
LEOCIRCULARRETROGRADESSO

現在のビュー

3D地球を読み込み中...

About Starlink 35021

Starlink 35021 (NORAD 65282) is a starlink constellation satellite (v2 mini) launched Aug 22, 2025 by SPXS of US. It operates in LEO, CIRCULAR, RETROGRADE, SSO orbit with a mass of 575.00 kg.

次回通過

Passes for default location (London). Set your location on the main map for personalized predictions.

高度履歴

Loading altitude history...

軌道要素

1 65282U 25184K 26228.91668981 .02447044 00000-0 78112-1 0 9996
2 65282 97.2846 277.3509 0001711 82.4604 227.9886 15.29053277 5747
Epoch: Aug 16, 2026 • Age: 10 hours

現在のステータス

高度 475.1 km
遠地点 / 近地点 N/A
速度 7.63 km/s
衛星直下点 15.60°N, 165.54°W
打ち上げ日 Aug 22, 2025
運用期間 0.9 years
タイプ internet

技術仕様

分類 Payload
質量 575.00 kg
乾燥質量 530.00 kg
総質量 575.00 kg
長さ 0.30 m
直径 4.10 m
スパン 29.00 m
形状 Box + pan
製造者 SPXS
バスタイプ Starlink V2MO
フェーズステータス In Orbit
所有者/国 SPXS/US

Most Searched